Location: Westport
(46.8903°N, 124.1043°W)
Time: 09:54:28
(UTC+00:00)

Envisat - Visible Passes

Search period start: 09 August 2022 00:00
Search period end: 19 August 2022 00:00
Orbit: 764 x 765 km, 98.2° (Epoch: 08 August)

Date Brightness Start Highest point End Pass type
(mag) Time Alt. Az. Time Alt. Az. Time Alt. Az.
09 Aug 5.6 11:34:42 10° NE 11:38:07 18° E 11:41:32 10° SE visible
11 Aug 4.9 11:59:04 10° NE 12:03:31 29° E 12:07:55 10° SSE visible
12 Aug 5.7 11:23:29 10° NE 11:26:09 14° E 11:28:50 10° ESE visible
13 Aug 4.0 12:23:51 10° NNE 12:28:48 49° E 12:33:42 10° S visible
14 Aug 5.2 11:47:32 10° NE 11:51:36 24° E 11:55:38 10° SE visible
15 Aug 5.9 11:12:50 10° ENE 11:14:10 11° E 11:15:31 10° E visible
16 Aug 4.4 12:12:10 10° NNE 12:16:56 39° E 12:21:39 10° SSE visible
17 Aug 5.5 11:36:05 10° NE 11:39:39 19° E 11:43:13 10° SE visible
18 Aug 3.5 12:37:05 10° NNE 12:42:10 65° ESE 12:47:12 10° S visible
